#timestamp,LO_Frequency,Hit,StdDev 
1589151615.4,286047002.7,N
1589151635.2,286047000.4,N
1589151655.0,286047001.1,N
1589151655.9,286047001.1,N
1589151675.8,286047000.2,N
1589151695.6,286047000.1,N
1589151715.5,286047001.9,N
1589151735.3,286047003.7,N
1589151755.1,286047001.9,N
1589151775.9,286047001.9,N
1589151795.7,286046999.9,N
1589151815.5,286047001.2,N
1589151835.4,286047000.4,N
1589151855.2,286047000.2,N
1589151875.1,286046996.6,N
1589151876.0,286046996.6,N
1589151895.8,286046998.7,N
1589151915.6,286046998.2,N
1589151935.5,286047000.6,N
1589151955.3,286047002.5,N
1589151975.2,286047002.7,N
1589151995.9,286047001.5,N
1589152015.7,286047000.1,N
1589152035.6,286047001.0,N
1589152055.4,286046999.8,N
1589152075.2,286047001.0,N
1589152095.1,286047002.4,N
1589152096.0,286047002.4,N
1589152115.8,286047002.5,N
1589152135.7,286047002.2,N
1589152155.5,286047000.1,N
1589152175.3,286047000.4,N
1589152195.2,286047000.5,N
1589152215.0,286047000.4,N
1589152215.9,286047000.4,N
1589152235.8,286046999.7,N
1589152255.6,286046999.9,N
1589152275.4,286047002.3,N
1589152295.3,286047000.3,N
1589152315.1,286047000.5,N
1589152335.8,286047000.1,N
1589152355.7,286047000.0,N
1589152375.5,286047001.9,N
1589152395.4,286047002.0,N
1589152415.2,286047004.1,N
1589152435.0,286047003.9,N
1589152436.0,286047003.9,N
1589152455.8,286047004.4,Y
1589152475.6,286047001.8,P
1589152495.5,286047000.0,N
1589152515.3,286047004.3,P
1589152535.1,286047003.3,N
1589152555.9,286047002.6,N
1589152575.7,286047001.9,N
1589152595.6,286047004.2,Y
1589152615.4,286047000.5,P
1589152635.2,286046998.7,N
1589152655.1,286046996.8,N
1589152656.0,286046996.8,N
1589152675.8,286046997.9,N
1589152695.7,286046998.5,N
1589152715.5,286046998.4,N
1589152735.3,286046997.9,N
1589152755.2,286046996.8,N
1589152775.0,286046999.1,N
1589152775.9,286046999.1,N
1589152795.8,286047000.6,N
1589152815.6,286047000.5,N
1589152835.4,286047001.7,N
1589152855.3,286047002.7,N
1589152875.1,286047001.4,N
1589152895.8,286047004.2,N
1589152915.7,286047001.9,N
1589152935.5,286047002.7,N
1589152955.4,286047002.4,N
1589152975.2,286046998.2,N
1589152995.0,286046998.2,N
1589152995.9,286046998.2,N
1589153015.8,286046998.7,N
1589153035.6,286046999.3,N
1589153055.4,286047002.7,N
1589153075.3,286046999.3,N
1589153095.1,286046998.7,N
1589153115.9,286047001.0,N
1589153135.7,286046997.0,N
1589153155.5,286046999.6,N
1589153175.4,286047001.1,N
1589153195.2,286046998.5,N
1589153215.1,286046998.6,N
1589153216.0,286046998.6,N
1589153235.8,286046995.3,N
1589153255.6,286046995.8,N
1589153275.5,286046995.4,N
1589153295.3,286046997.5,N
1589153315.1,286046995.2,N
1589153335.9,286046995.1,N
1589153355.7,286046995.5,N
1589153375.6,286046993.8,N
1589153395.4,286046993.4,N
1589153415.2,286046993.7,N
1589153435.1,286046992.9,N
1589153436.0,286046992.9,N
1589153455.8,286046991.8,N
1589153475.7,286046992.3,N
1589153495.5,286046992.0,N
1589153515.3,286046993.4,N
1589153535.2,286046994.8,N
1589153555.0,286046994.3,N
1589153555.9,286046994.3,N
1589153575.7,286046993.4,N
1589153595.6,286046994.2,N
1589153615.4,286046993.9,N
1589153635.3,286046994.2,N
1589153655.1,286046993.4,N
1589153656.0,286046993.4,N
1589153675.8,286046994.1,N
1589153695.7,286046996.4,N
1589153715.5,286046993.9,Y
1589153735.4,286046999.5,P
1589153755.2,286046998.3,N
1589153775.0,286046999.0,N
1589153775.9,286046999.0,N
1589153795.8,286047000.5,N
1589153815.6,286046998.1,N
1589153835.4,286047000.0,N
1589153855.3,286047002.0,N
1589153875.1,286047000.9,N
1589153895.9,286047002.3,N
1589153915.7,286047000.6,N
1589153935.5,286047011.9,Y
1589153955.4,286047003.6,P
1589153975.2,286047000.1,N
1589153995.1,286047001.8,N
1589153996.0,286047001.8,N
1589154015.8,286047001.9,N
1589154035.6,286047002.5,N
1589154055.5,286047000.8,N
1589154075.3,286047000.8,N
1589154095.1,286047000.2,N
1589154115.9,286047000.9,N
1589154135.7,286047000.1,N
1589154155.6,286046998.1,N
1589154175.4,286047002.8,N
1589154195.2,286047002.1,N
1589154215.1,286047000.0,N
1589154216.0,286047000.0,N
1589154235.8,286047002.3,N
1589154255.7,286047001.9,N
1589154275.5,286046999.8,N
1589154295.3,286047002.4,N
1589154315.2,286047002.1,N
1589154335.0,286047002.4,N
1589154335.9,286047002.4,N
1589154355.8,286047003.9,Y
1589154375.6,286047001.7,P
1589154395.5,286047005.4,P
1589154415.3,286047002.9,N
1589154435.1,286047001.3,N
1589154455.9,286047004.1,N
1589154475.7,286047003.6,N
1589154495.6,286047003.7,N
1589154515.4,286047002.7,N
1589154535.2,286046999.8,N
1589154555.1,286047001.7,N
1589154556.0,286047001.7,N
1589154575.8,286047002.1,N
1589154595.7,286047005.1,Y
1589154615.5,286046999.9,P
1589154635.3,286047004.4,P
1589154655.2,286047002.2,N
1589154675.0,286047000.1,N
1589154675.9,286047000.1,N
1589154695.7,286046998.6,N
1589154715.6,286047002.5,N
1589154735.4,286047002.2,N
1589154755.3,286047000.0,N
1589154775.1,286046999.9,N
1589154795.8,286047000.7,N
1589154815.7,286046999.0,N
1589154835.5,286046998.4,N
1589154855.4,286047000.0,N
1589154875.2,286047002.2,N
1589154895.0,286047001.9,N
1589154895.9,286047001.9,N
1589154915.8,286047002.6,N
1589154935.6,286046998.2,N
1589154955.4,286046998.7,N
1589154975.3,286046996.9,N
1589154995.1,286047000.5,N
1589155015.9,286046997.2,N
1589155035.7,286046999.1,N
1589155055.5,286046999.0,N
1589155075.4,286046998.7,N
1589155095.2,286046998.6,N
1589155115.1,286047000.6,N
1589155116.0,286047000.6,N
1589155135.8,286047000.0,N
1589155155.6,286047000.0,N
1589155175.5,286047002.7,N
1589155195.3,286047000.1,N
